Weather History for Thief River Falls, MN

Change the Weather History Date:

Saturday, January 19, 2013

  Actual Average Record
Temperature  
Mean Temperature 7 °F -  
Max Temperature 23 °F 11 °F 35 °F (1991)
Min Temperature -11 °F 0 °F -32 °F (1985)
Degree Days  
Heating Degree Days 58    
Moisture  
Dew Point -4 °F    
Average Humidity 83    
Maximum Humidity 92    
Minimum Humidity 72    
Precipitation  
Precipitation 0.00 in - - ()
Sea Level Pressure  
Sea Level Pressure 30.04 in    
Wind  
Wind Speed 21 mph (NW)    
Max Wind Speed 30 mph    
Max Gust Speed 36 mph    
Visibility 5 miles    
Events      
Averages and records for this station are not official NWS values.
T = Trace of Precipitation, MM = Missing Value Source: NWS Daily Summary

Daily Weather History Graph

Daily Weather History Graph

Search for Another Location

Airport:

Trip Planner

Search our weather history database for the weather conditions in past years. The results will help you decide how hot, cold, wet, or windy it might be!

Date:

Astronomy

Jan. 19, 2013 Rise Set
Actual Time 8:06 AM CST 5:05 PM CST
Civil Twilight 7:31 AM CST 5:39 PM CST
Nautical Twilight 6:53 AM CST 6:18 PM CST
Astronomical Twilight 6:16 AM CST 6:55 PM CST
Moon 11:37 AM CST (1/19) 1:35 AM CST (1/19)
Length of Visible Light 10h 07m
Length of Day
8h 58m
First Quarter, 57% of the Moon is Illuminated
Jan 19
First Quarter
Jan 26
Full
Feb 3
Last Quarter
Feb 10
New
Feb 17
First Quarter

Hourly Weather History & Observations

Time (CST) Temp. Windchill Dew Point Humidity Pressure Visibility Wind Dir Wind Speed Gust Speed Precip Events Conditions
6:35 AM 23.0 °F 8.7 °F 19.4 °F 86% 29.64 in 10.0 mi WNW 18.4 mph - N/A   Overcast
6:55 AM 23.0 °F 8.3 °F 19.4 °F 86% 29.65 in 10.0 mi WNW 19.6 mph 25.3 mph N/A   Overcast
7:15 AM 19.4 °F 3.6 °F 15.8 °F 86% 29.66 in 10.0 mi WNW 19.6 mph 27.6 mph N/A   Overcast
7:35 AM 17.6 °F 0.1 °F 12.2 °F 79% 29.68 in 4.0 mi WNW 23.0 mph 28.8 mph N/A   Overcast
7:55 AM 14.0 °F -6.2 °F 10.4 °F 86% 29.71 in 2.5 mi WNW 27.6 mph 33.4 mph N/A   Overcast
8:15 AM 12.2 °F -8.2 °F 8.6 °F 85% 29.72 in 2.5 mi NW 26.5 mph - N/A   Overcast
8:35 AM 12.2 °F -6.7 °F 8.6 °F 85% 29.74 in 3.0 mi NW 21.9 mph 25.3 mph N/A   Overcast
8:55 AM 10.4 °F -9.1 °F 6.8 °F 85% 29.76 in 1.8 mi NW 21.9 mph 29.9 mph N/A   Overcast
9:15 AM 8.6 °F -11.9 °F 3.2 °F 79% 29.78 in 1.2 mi NW 23.0 mph - N/A   Overcast
9:35 AM 6.8 °F -14.3 °F 3.2 °F 85% 29.80 in 1.8 mi NW 23.0 mph 27.6 mph N/A   Overcast
11:35 AM 1.4 °F -23.9 °F -2.2 °F 85% 29.88 in 0.8 mi WNW 29.9 mph 35.7 mph N/A   Overcast
11:55 AM 1.4 °F -23.2 °F -2.2 °F 85% 29.89 in 0.5 mi WNW 27.6 mph 31.1 mph N/A   Overcast
12:15 PM 1.4 °F -23.2 °F -2.2 °F 85% 29.89 in 0.5 mi WNW 27.6 mph 35.7 mph N/A   Overcast
12:35 PM 1.4 °F -23.5 °F -4.0 °F 78% 29.90 in 0.5 mi WNW 28.8 mph 34.5 mph N/A   Overcast
12:55 PM 1.4 °F -22.7 °F -5.8 °F 72% 29.92 in 0.8 mi WNW 26.5 mph 32.2 mph N/A   Overcast
1:15 PM 1.4 °F -21.4 °F -2.2 °F 85% 29.92 in 0.5 mi WNW 23.0 mph 32.2 mph N/A   Overcast
3:35 PM 1.4 °F -21.4 °F -5.8 °F 72% 30.04 in 0.8 mi NW 23.0 mph 32.2 mph N/A   Overcast
3:55 PM -0.4 °F -24.3 °F -2.2 °F 92% 30.06 in 1.0 mi NW 24.2 mph 32.2 mph N/A   Overcast
4:15 PM -0.4 °F -23.8 °F -5.8 °F 78% 30.08 in 1.0 mi NW 23.0 mph - N/A   Overcast
4:35 PM -0.4 °F -24.3 °F -4.0 °F 85% 30.11 in 1.2 mi NW 24.2 mph - N/A   Overcast
4:55 PM -0.4 °F -22.3 °F -7.6 °F 72% 30.13 in 3.0 mi NW 19.6 mph - N/A   Scattered Clouds
5:15 PM -2.2 °F -24.7 °F -5.8 °F 85% 30.15 in 1.2 mi NW 19.6 mph - N/A   Overcast
5:35 PM -2.2 °F -25.7 °F -5.8 °F 85% 30.17 in 1.5 mi NW 21.9 mph 25.3 mph N/A   Overcast
5:55 PM -2.2 °F -27.1 °F -7.6 °F 78% 30.18 in 1.8 mi NW 25.3 mph 28.8 mph N/A   Overcast
6:15 PM -4.0 °F -28.6 °F -7.6 °F 85% 30.19 in 1.8 mi NW 23.0 mph - N/A   Overcast
6:35 PM -5.8 °F -31.5 °F -9.4 °F 84% 30.21 in 2.0 mi NW 24.2 mph - N/A   Overcast
6:55 PM -5.8 °F -30.5 °F -9.4 °F 84% 30.21 in 1.8 mi NW 21.9 mph - N/A   Overcast
7:15 PM -5.8 °F -30.5 °F -11.2 °F 77% 30.22 in 3.0 mi NW 21.9 mph - N/A   Scattered Clouds
7:35 PM -7.6 °F -31.1 °F -9.4 °F 92% 30.24 in 3.0 mi NW 18.4 mph - N/A   Clear
7:55 PM -7.6 °F -31.1 °F -9.4 °F 92% 30.24 in 5.0 mi NW 18.4 mph 26.5 mph N/A   Clear
8:15 PM -7.6 °F -29.8 °F -11.2 °F 84% 30.25 in 10.0 mi NW 16.1 mph - N/A   Clear
8:35 PM -7.6 °F -29.8 °F -9.4 °F 92% 30.25 in 10.0 mi NW 16.1 mph - N/A   Clear
8:55 PM -7.6 °F -29.8 °F -13.0 °F 77% 30.25 in 10.0 mi NW 16.1 mph - N/A   Clear
9:15 PM -7.6 °F -29.1 °F -11.2 °F 84% 30.26 in 10.0 mi NW 15.0 mph - N/A   Clear
9:35 PM -7.6 °F -26.6 °F -13.0 °F 77% 30.27 in 10.0 mi NW 11.5 mph - N/A   Clear
9:55 PM -9.4 °F -31.4 °F -13.0 °F 84% 30.28 in 10.0 mi NW 15.0 mph - N/A   Clear
10:15 PM -9.4 °F -29.8 °F -11.2 °F 92% 30.28 in 10.0 mi NNW 12.7 mph - N/A   Clear
10:35 PM -9.4 °F -28.9 °F -14.8 °F 77% 30.27 in 10.0 mi NNW 11.5 mph - N/A   Clear
10:55 PM -9.4 °F -26.8 °F -14.8 °F 77% 30.28 in 10.0 mi NW 9.2 mph - N/A   Clear
11:15 PM -9.4 °F -25.6 °F -14.8 °F 77% 30.28 in 10.0 mi WNW 8.1 mph - N/A   Clear
11:35 PM -11.2 °F -30.1 °F -13.0 °F 92% 30.29 in 10.0 mi WNW 10.4 mph - N/A   Clear